Regional Weather Roundup
Issued by NWS Jackson, KY

Home | Current Version | Previous Version | Text Only | Print | Product List | Glossary On
Versions: 1 2 3 4 5 6 7 8 9 10 11 12 13 14 15 16 17 18 19 20 21 22 23 24 25 26 27 28 29 30 31 32 33 34 35 36 37 38 39 40 41 42 43 44 45 46 47
000
ASUS43 KJKL 281110
RWRJKL

EAST KENTUCKY HOURLY WEATHER ROUNDUP
NATIONAL WEATHER SERVICE JACKSON KY
700 AM EDT TUE APR 28 2015

NOTE: "FAIR" INDICATES FEW OR NO CLOUDS BELOW 12,000 FEET WITH
NO SIGNIFICANT WEATHER AND/OR OBSTRUCTIONS TO VISIBILITY.

* THESE REPORTS ARE NOT UNDER NWS QUALITY CONTROL AND MAY NOT
  REPORT WEATHER SUCH AS PRECIPITATION AND FOG.

KYZ079-080-083-085-087-088-110-112-115-119-120-281200
...EASTERN KENTUCKY...

CITY           SKY/WX    TMP DP  RH WIND       PRES   REMARKS
JACKSON        CLEAR     39  33  79 CALM      30.03S
LONDON         CLEAR     43  33  68 NE3       30.02S
SOMERSET*      CLEAR     41  34  75 NE5       30.04R
MONTICELLO*    CLEAR     41  37  85 CALM      30.05R
MIDDLESBORO*   CLEAR     36  36 100 CALM      30.02R
HARLAN APT*    SUNNY     36  36 100 CALM      30.01S
HAZARD APT*    SUNNY     41  36  81 CALM      30.03S
BLACK MTN*       N/A     32  32 100 N2          N/A
PIKEVILLE APT* CLEAR     39  34  81 N5        30.04R
BIG SANDY*     SUNNY     37  35  90 NE5       30.04S WCI  33
MOREHEAD APT*  SUNNY     39  32  75 NE5       30.09S
$$

KYZ035-036-041-042-044-050-067-078-099-281200
...CENTRAL KENTUCKY...

CITY           SKY/WX    TMP DP  RH WIND       PRES   REMARKS
MT STERLING*   CLEAR     37  34  87 NE5       30.07F WCI  34
FLEMING/MASON* CLEAR     37  34  87 N6        30.10S WCI  33
DANVILLE*      CLEAR     37  36  93 NE6       30.05S WCI  33
RICHMOND*      CLEAR     39  34  81 NE5       30.03F
LEXINGTON      CLEAR     37  34  89 NE9       30.06S WCI  30
FRANKFORT      CLEAR     41  35  79 NE5       30.06S
$$

KYZ091>093-OHZ055-061-077-WVZ005-015-034-035-042-281200
...SOUTHERN OHIO/WEST VIRGINIA...

CITY           SKY/WX    TMP DP  RH WIND       PRES   REMARKS
COVINGTON      CLEAR     41  36  82 NE5       30.10R
COLUMBUS       CLEAR     35  33  92 CALM      30.10R
DAYTON         CLEAR     37  34  89 CALM      30.12R
WILMINGTON     CLEAR     37  33  85 NW6       30.10R WCI  32
HUNTINGTON     CLEAR     37  34  89 N3        30.07S
CHARLESTON     CLEAR     35  33  92 CALM      30.07R
PINEVILLE*     CLEAR     36  36 100 MISG      30.06S
BECKLEY        CLEAR     36  29  75 NE5       30.01S WCI  32
BLUEFIELD      CLEAR     37  30  75 N3        29.99S
$$

VAZ002-007-008-TNZ017-027-036-066-071-281200
...SOUTHWEST VIRGINIA/EAST TENNESSEE...

CITY           SKY/WX    TMP DP  RH WIND       PRES   REMARKS
WISE*          CLEAR     36  34  93 N5        30.00S WCI  32
JONESVILLE*    SUNNY     32  32 100 CALM      30.02S
ABINGDON*      CLEAR     38  35  87 CALM      29.99S
BRISTOL        CLEAR     35  34  96 CALM      30.00S
KNOXVILLE      PTCLDY    43  37  79 N6        29.98R
OAK RIDGE      CLEAR     43  38  82 E3        30.00R
CROSSVILLE     CLEAR     41  35  79 VRB3      29.98R
NASHVILLE      PTCLDY    46  40  79 N9        30.00R
$$

...KEY TO REMARKS...
VSB - VISIBILITY IN MILES
WCI - WIND CHILL INDEX
HX  - HEAT INDEX

$$


USA.gov is the U.S. government's official web portal to all federal, state and local government web resources and services.